Theta_e
352 354 356 360 360 357 361 359 354 354 353 351 348 348 351 351 354 357 351 350 350 350 349 340 340 341 341 341 343 344 344 341 334 334 333 333 331 330 329 327 333 330 329 332 337 339 339 337 340
352 357 358 353 357 361 360 352 355 353 352 352 348 349 350 354 353 352 351 351 351 350 349 347 336 338 338 338 340 342 343 343 343 340 342 341 340 336 333 330 329 335 335 335 336 338 341 342 341
350 352 354 353 355 360 358 349 352 350 351 352 350 350 350 352 352 351 351 351 350 350 348 347 338 340 338 338 336 337 339 338 342 342 341 338 336 334 334 333 333 334 335 336 336 336 337 336 336
352 353 352 355 357 353 352 351 350 350 351 350 351 350 351 352 351 352 351 350 350 350 348 341 339 340 340 340 339 337 335 335 335 336 337 338 338 338 339 339 340 340 339 339 339 338 337 338 338
351 349 350 350 352 352 351 350 350 351 352 351 348 351 351 352 352 352 351 351 350 349 350 339 338 340 340 340 339 339 339 339 339 339 338 338 338 338 337 337 337 339 340 340 339 339 339 339 339
345 348 347 348 350 350 351 350 351 352 352 351 350 349 352 352 352 351 351 351 349 350 349 349 340 340 340 340 339 338 339 339 339 338 336 336 337 337 337 339 339 336 338 336 334 336 339 338 338
343 346 347 346 348 349 350 351 351 352 352 352 350 352 351 352 352 351 351 351 350 350 350 351 349 340 340 340 340 337 338 339 340 339 335 340 339 338 334 337 336 331 334 336 335 338 335 334 335
343 346 343 344 347 349 350 350 352 351 352 350 349 353 352 351 351 351 351 351 350 351 351 352 352 350 348 347 343 341 341 342 336 335 337 340 335 336 334 334 331 332 334 336 337 337 336 335 335
342 343 343 343 347 348 350 351 351 350 350 351 350 350 351 351 350 351 351 350 351 351 351 350 350 353 352 351 347 340 335 337 339 336 340 340 346 345 341 338 334 335 335 334 337 337 338 336 336
339 341 341 341 342 347 350 350 350 349 349 350 352 351 352 350 349 350 350 350 350 350 349 348 348 351 351 349 350 346 346 338 347 347 344 347 346 345 347 341 336 334 335 339 335 334 336 338 346
336 339 335 340 344 346 348 350 350 350 351 349 351 352 352 350 348 349 349 349 349 349 349 348 349 350 349 347 347 349 341 344 345 344 346 346 345 345 344 344 344 339 342 343 344 343 339 345 346
336 334 332 334 341 346 349 349 350 349 349 349 349 352 352 350 349 349 348 346 348 349 348 347 349 350 348 346 347 348 348 343 347 347 347 346 346 349 345 343 349 343 343 343 343 347 347 346 347
333 332 332 332 333 345 349 350 350 350 350 350 349 352 351 350 349 348 345 346 347 349 350 349 350 349 348 348 347 349 348 345 344 348 345 346 347 348 344 344 346 341 344 348 345 344 345 348 347
329 331 333 335 340 346 349 349 351 350 350 350 350 352 351 350 348 347 347 347 348 349 351 351 351 350 348 349 348 349 348 349 348 347 344 340 346 348 348 347 351 348 343 343 345 344 347 348 348
329 333 335 333 341 344 348 351 352 349 351 350 351 352 351 349 348 348 348 348 349 350 350 351 352 351 349 349 349 349 352 349 349 346 346 343 341 346 344 348 345 351 351 344 346 346 346 347 348
332 335 335 333 339 343 346 342 345 349 350 350 350 351 351 348 348 348 349 350 350 350 351 352 350 350 351 349 349 347 350 349 348 346 347 343 341 342 345 348 350 348 349 348 351 350 344 345 348
334 335 334 333 335 334 344 345 345 349 350 350 350 349 351 348 349 349 349 350 350 351 351 352 351 350 351 349 349 346 347 348 348 347 348 348 345 343 346 350 349 341 350 349 350 350 344 349 348
335 333 331 333 332 332 335 339 338 346 349 350 350 349 350 349 348 349 350 350 350 351 353 353 352 352 350 349 346 346 347 347 345 347 348 348 349 343 342 348 344 342 344 345 349 344 349 348 350
330 331 331 332 331 335 335 339 340 340 349 348 349 350 349 349 348 348 349 350 351 352 353 354 353 350 350 345 350 346 344 347 347 348 347 349 347 343 340 348 345 342 344 345 344 349 344 346 348
330 330 331 330 334 333 338 339 340 344 345 349 348 349 349 348 348 349 349 349 350 352 353 355 354 347 347 352 350 350 349 348 350 347 347 345 346 346 344 343 349 346 351 342 342 343 350 350 350
330 331 330 330 331 336 340 338 342 343 348 349 349 348 349 349 347 348 349 350 350 352 353 354 355 352 346 351 346 345 345 349 348 347 347 346 342 343 344 345 347 345 347 350 348 347 349 349 350
331 330 329 331 333 336 338 338 340 343 345 350 349 349 348 348 347 346 346 349 349 351 352 354 349 352 346 346 346 345 348 349 349 348 345 347 343 343 345 342 344 343 348 347 349 349 346 343 345
331 331 332 333 332 334 337 338 339 342 342 344 343 346 349 348 348 345 345 346 349 350 352 353 345 346 348 346 348 345 344 348 348 349 347 347 348 343 348 343 345 343 347 349 343 346 342 350 348
330 331 332 333 333 335 335 337 338 340 343 344 344 344 344 347 347 345 345 347 349 350 350 352 351 345 346 346 346 345 345 349 349 348 349 348 343 343 344 345 342 347 347 346 350 349 346 347 346
330 332 332 333 335 336 333 336 335 339 341 342 345 345 343 345 347 346 346 348 350 351 350 351 351 346 346 347 348 345 346 345 347 348 349 346 343 342 350 344 344 349 344 342 348 343 344 346 344
332 332 331 333 334 334 334 335 337 338 339 342 347 346 343 346 347 346 346 349 350 351 352 351 345 345 348 347 346 346 345 345 347 348 348 347 347 348 349 350 347 345 344 343 344 346 350 348 348
332 332 330 330 330 333 334 334 340 340 344 345 346 347 348 346 347 346 348 349 351 350 348 350 345 345 346 348 348 347 345 347 350 348 348 349 349 349 350 344 344 343 342 344 345 344 347 350 345
330 330 331 331 333 333 333 333 336 342 345 346 346 347 347 347 346 346 346 347 350 351 347 346 347 350 350 350 352 347 345 345 349 349 344 348 349 349 349 347 346 345 344 344 345 349 349 347 349
332 332 331 331 331 332 332 334 335 341 345 345 343 345 347 346 346 345 346 348 351 351 347 342 342 348 353 351 350 349 351 350 347 350 348 346 349 348 341 340 345 350 349 345 345 344 345 344 345
333 333 332 333 335 332 332 335 337 340 342 341 341 342 345 349 346 345 346 346 348 351 350 342 342 343 348 352 354 353 351 353 352 351 350 345 347 346 348 343 349 351 348 344 344 344 350 352 350
Wind_Speed
9 6 0 1 5 2 7 6 2 7 5 4 3 1 8 5 6 4 17 17 23 21 20 20 18 17 16 16 17 16 17 15 15 14 11 9 8 8 8 8 8 7 8 6 6 6 5 5 4
3 2 1 3 2 5 6 4 2 5 6 3 5 2 1 6 6 11 22 22 22 22 20 18 19 17 17 15 15 15 15 14 14 14 11 8 6 7 7 8 9 9 7 7 8 6 6 8 5
8 5 3 2 0 7 6 2 5 5 3 2 3 2 3 4 5 21 15 25 22 21 20 19 20 14 15 15 13 14 14 13 13 12 10 8 7 7 7 7 7 8 9 9 9 10 11 9 9
4 2 1 6 11 7 8 7 6 8 4 4 1 6 5 2 14 13 23 24 22 20 19 20 20 16 14 13 12 12 12 12 11 11 9 8 7 7 7 6 7 7 7 7 8 10 10 9 10
5 2 6 10 10 7 3 2 5 1 4 6 3 3 6 8 10 19 25 22 21 19 18 20 18 16 15 12 11 11 10 9 9 8 6 7 8 8 8 6 6 6 5 5 6 7 7 7 7
2 4 6 10 10 4 1 1 5 4 7 7 6 7 7 9 17 23 23 21 20 20 17 16 17 16 14 12 10 11 10 8 7 7 7 7 7 7 6 5 4 3 2 1 3 4 3 4 5
5 3 7 6 7 5 3 4 2 2 7 5 6 5 9 13 17 22 22 20 20 18 16 16 15 16 14 12 10 11 11 9 7 8 7 7 6 6 7 6 5 7 6 4 4 3 2 3 4
3 4 4 5 7 8 4 5 1 3 4 5 7 5 11 18 21 22 21 20 19 17 16 16 16 14 14 12 12 11 10 8 9 9 8 7 6 6 6 6 6 4 6 6 4 4 3 4 4
1 3 5 7 6 6 1 3 2 3 4 5 6 1 7 22 24 23 22 21 20 18 16 15 15 15 14 11 12 13 12 9 8 8 8 6 3 7 7 8 8 4 3 7 5 4 4 5 4
4 3 6 4 5 4 0 4 4 6 6 6 6 6 17 24 26 26 25 24 21 20 19 17 15 13 13 12 11 10 9 9 8 7 7 5 8 8 8 9 7 7 5 5 10 7 5 1 5
3 4 8 7 6 5 2 5 5 6 5 7 11 13 21 24 26 26 24 23 21 20 18 18 17 15 14 13 10 8 11 8 8 8 7 7 6 5 5 5 5 6 4 5 4 5 6 6 5
4 2 6 7 4 4 5 2 4 8 4 1 5 15 21 24 26 26 25 22 21 20 19 18 16 16 15 12 11 10 9 11 10 8 8 9 5 7 7 7 6 4 3 0 4 6 7 6 6
4 10 11 11 4 7 4 6 5 7 7 5 6 17 21 21 20 22 23 20 19 18 18 18 16 16 15 15 12 10 8 8 11 9 9 9 8 6 6 5 3 2 1 2 3 5 6 5 5
12 13 10 4 3 4 8 6 4 3 6 6 12 18 20 19 20 21 22 21 19 17 17 16 16 15 15 13 14 13 10 9 10 10 10 10 9 7 5 3 4 4 4 4 4 6 5 5 6
10 11 7 3 2 2 6 9 9 5 8 9 13 16 18 18 19 22 23 22 20 18 16 16 15 14 15 15 14 11 8 9 10 11 12 11 9 7 5 3 3 3 4 3 2 4 5 5 5
7 7 5 4 3 2 6 9 6 9 12 12 14 16 19 20 20 21 21 19 19 18 18 16 14 15 15 16 15 14 10 9 11 11 10 10 10 7 5 4 1 4 4 3 2 3 4 2 5
6 6 8 5 3 7 5 12 6 7 14 14 16 18 21 21 21 21 20 20 19 19 19 17 16 15 16 17 15 14 11 12 11 12 12 10 10 8 5 3 4 2 3 0 0 3 4 4 2
4 8 8 9 3 8 12 17 13 10 15 17 17 19 22 23 24 23 22 20 20 20 19 18 17 17 17 16 17 15 12 11 14 13 13 12 9 9 9 5 4 3 3 2 2 2 3 2 3
9 10 11 12 7 8 10 14 16 10 16 19 18 18 20 23 23 22 22 21 20 20 21 21 21 20 17 18 16 18 16 12 13 12 14 13 11 9 9 6 5 3 4 4 1 3 3 4 4
9 11 9 8 2 7 12 17 9 8 11 17 18 18 20 19 20 21 22 23 22 22 22 21 23 21 22 17 16 14 14 11 11 12 12 14 12 10 7 7 6 5 3 3 3 4 4 4 5
13 9 8 11 11 6 11 3 6 4 1 8 16 19 20 20 21 23 23 24 23 22 21 21 22 22 19 19 18 18 14 12 17 14 14 14 14 12 9 8 8 7 5 4 5 4 5 6 5
14 4 8 10 10 8 5 6 6 5 4 4 8 17 21 22 22 24 25 23 22 21 19 19 20 19 19 19 18 19 16 13 13 16 15 13 15 13 10 9 7 9 6 8 4 4 5 7 2
10 5 11 10 13 5 4 8 8 1 6 5 3 9 17 23 24 22 26 23 19 19 21 21 19 18 20 20 20 18 17 13 13 15 18 17 14 13 12 11 9 8 7 9 7 5 5 5 5
10 13 15 12 9 8 6 6 7 7 9 5 5 5 9 18 22 21 21 20 19 19 26 23 21 20 19 19 19 19 17 16 13 15 18 16 18 14 14 12 11 9 9 8 7 8 7 5 7
11 15 8 4 7 2 6 2 6 5 10 6 10 10 5 9 21 21 19 22 21 21 23 19 21 20 19 18 20 19 19 17 14 14 17 16 19 15 13 13 12 9 9 9 8 8 6 7 6
6 9 7 5 4 3 6 4 5 4 4 3 6 7 3 4 15 22 24 23 21 23 23 23 23 21 20 21 19 18 18 16 13 14 17 17 14 13 12 12 12 13 12 10 10 8 7 8 7
7 7 8 9 7 8 3 3 13 4 4 4 8 10 8 4 13 18 22 24 23 25 26 25 24 25 22 20 19 18 17 17 15 15 19 18 17 14 13 12 12 13 13 11 9 7 7 9 6
9 5 6 5 3 5 3 4 7 8 6 6 9 12 13 6 10 17 18 19 20 20 22 23 23 25 22 20 19 18 17 19 18 15 17 19 17 16 13 13 11 11 11 11 10 7 5 6 5
5 9 7 7 5 8 5 3 8 7 8 7 8 10 12 10 4 11 17 18 17 17 21 21 19 18 19 21 18 17 16 17 19 17 17 20 18 17 17 15 12 11 10 9 10 9 8 7 8
10 12 8 7 5 3 7 5 9 9 8 7 7 8 9 8 3 5 11 16 19 20 20 23 16 15 13 16 17 17 17 17 18 18 17 20 20 19 16 16 13 11 11 11 10 10 8 8 8
Wind_Direction
6 17 345 257 229 201 96 87 350 116 124 82 114 353 39 34 0 52 142 152 153 151 156 156 157 156 156 149 149 153 159 161 160 160 160 167 175 189 182 181 179 166 177 181 215 216 197 196 197
349 330 294 252 236 115 89 75 130 68 77 109 129 165 308 75 52 128 146 153 152 152 154 158 158 151 154 147 153 153 155 164 170 174 174 186 194 200 191 197 197 191 211 228 239 243 231 221 238
27 26 298 337 17 81 107 171 116 128 52 54 128 31 22 59 98 142 156 153 152 152 155 167 156 153 154 146 151 155 160 164 168 179 186 197 202 195 205 218 228 238 241 235 246 242 236 255 256
341 341 242 51 76 78 101 152 139 159 158 169 78 96 90 40 145 156 153 154 155 158 154 169 164 160 164 152 156 164 163 165 172 181 192 201 206 212 223 231 235 247 250 250 249 248 251 253 259
5 286 103 78 78 90 77 76 134 146 178 149 122 117 90 117 150 152 154 157 160 159 163 168 167 169 174 167 166 174 177 176 183 190 205 213 221 226 230 232 248 257 257 256 249 254 257 243 245
34 265 71 67 69 77 141 123 180 199 164 135 149 125 100 136 145 152 158 161 161 160 163 171 171 175 181 181 179 188 195 195 195 200 215 227 223 226 228 218 203 200 231 207 236 252 248 248 240
6 7 59 64 55 73 61 150 198 145 169 165 153 132 130 148 157 155 161 163 165 158 167 174 177 181 185 191 185 194 209 215 208 216 220 224 216 226 224 206 202 200 220 229 232 236 216 232 219
358 292 58 61 35 55 77 166 150 249 115 133 168 155 170 166 159 160 164 168 169 165 176 174 179 182 185 191 193 203 215 213 228 219 215 218 217 213 222 205 186 199 230 210 209 227 201 200 201
348 257 55 38 4 35 63 204 197 198 166 196 171 66 146 165 159 164 169 171 173 172 176 177 180 184 180 187 198 206 214 218 216 202 214 219 182 261 240 209 197 191 313 233 212 217 202 194 206
322 353 20 337 327 328 155 228 185 210 192 183 161 143 151 160 167 172 175 178 178 176 179 179 179 189 182 183 205 196 209 214 195 206 207 183 210 215 214 239 238 264 284 245 227 234 247 112 204
0 11 354 5 329 283 297 219 212 235 228 217 191 169 164 169 175 178 182 182 180 182 183 184 182 186 185 191 191 201 207 195 207 209 198 178 222 227 251 237 269 292 268 244 240 259 239 227 203
274 317 354 322 326 243 251 273 233 241 272 348 207 180 175 177 183 185 185 182 183 186 188 187 189 187 186 196 193 198 215 200 197 221 199 204 197 218 221 260 259 265 275 229 197 187 201 209 226
263 335 320 331 286 239 229 242 253 254 252 234 203 181 183 183 188 190 186 186 185 191 191 193 191 193 190 194 198 199 209 220 201 210 205 198 216 240 240 272 231 190 18 269 253 210 211 215 213
327 308 310 338 359 228 234 249 227 210 206 196 177 181 183 187 188 187 189 190 193 194 195 196 197 202 195 198 200 205 197 209 205 209 212 214 217 239 278 236 245 259 296 305 250 248 221 222 214
310 305 295 21 8 286 263 247 236 214 184 183 177 181 182 186 186 188 190 193 196 197 199 201 203 205 203 205 208 202 203 210 208 206 208 207 212 248 234 264 206 251 261 319 256 240 228 207 213
300 277 307 59 272 106 254 308 138 184 190 191 187 183 186 187 189 190 195 195 197 196 201 203 203 205 210 206 208 212 191 203 204 203 209 213 208 219 235 267 285 278 244 275 239 266 281 213 187
210 309 324 343 282 310 246 302 61 194 202 201 193 188 190 191 193 193 195 196 198 201 204 204 205 202 208 212 211 214 216 202 198 202 204 220 211 217 220 258 278 240 208 205 235 298 275 305 209
350 307 310 315 350 280 283 276 286 206 225 213 201 197 195 197 199 198 198 202 204 206 207 208 210 206 209 215 218 222 222 220 189 206 206 218 217 230 238 250 267 223 218 296 295 298 281 241 245
293 296 298 304 10 304 304 303 307 260 218 229 213 202 204 205 202 201 203 202 205 209 212 211 210 216 212 215 215 220 225 223 208 206 211 216 216 227 230 231 262 259 264 252 299 305 316 295 265
266 281 294 306 100 300 330 313 1 345 223 231 230 217 212 210 203 200 204 206 209 211 213 215 216 218 222 217 217 212 219 209 211 207 213 205 212 218 228 234 238 250 245 264 283 283 285 302 257
250 264 314 335 320 227 322 68 32 52 281 234 227 227 222 216 206 203 204 209 209 211 212 215 218 218 221 216 222 219 216 209 209 203 208 211 213 223 238 242 226 236 233 276 281 276 285 294 267
282 59 295 309 308 336 343 340 59 36 84 198 231 227 225 216 214 211 208 211 215 213 212 212 222 214 221 222 219 219 206 206 212 208 203 209 218 224 232 222 229 235 232 245 281 301 250 274 260
286 300 301 294 290 290 162 283 109 107 25 351 247 231 229 225 217 212 213 210 214 213 208 206 217 218 213 220 214 217 214 216 210 206 208 207 219 217 215 225 232 238 242 255 237 263 275 272 280
281 274 259 248 266 245 79 308 65 31 359 341 341 311 245 219 212 212 209 206 207 200 199 200 206 216 213 219 216 219 217 203 205 204 213 208 220 220 219 222 232 244 238 250 253 259 268 265 265
240 261 276 249 193 47 76 232 322 30 11 340 327 340 286 217 198 200 197 198 195 198 199 197 209 216 215 215 216 221 216 214 211 209 202 206 215 213 223 231 237 247 262 258 241 259 267 265 269
262 311 301 294 263 34 130 352 56 15 341 313 2 10 6 194 197 198 193 195 194 193 194 197 204 216 221 216 219 219 214 217 208 210 198 198 201 201 209 229 237 246 254 256 249 256 246 268 261
137 233 0 289 205 251 74 19 109 70 111 77 51 41 39 164 188 197 196 193 194 198 208 210 212 217 215 214 216 224 224 210 211 207 202 198 203 208 221 239 251 241 249 255 255 261 246 246 266
267 360 242 196 276 282 71 273 50 41 79 48 39 27 23 37 185 195 202 201 199 197 202 210 216 212 212 211 213 221 220 219 215 214 212 204 209 211 220 235 233 238 242 252 256 251 247 244 252
177 225 224 300 302 310 260 96 74 47 46 34 31 22 18 28 165 191 193 196 199 195 202 199 207 208 209 209 213 215 214 215 217 216 220 213 215 221 232 235 235 235 232 241 243 239 246 265 261
273 286 273 254 196 221 307 313 70 55 74 46 33 20 17 29 87 177 195 196 201 199 206 210 204 209 208 208 209 212 215 212 216 216 219 218 220 225 226 233 238 237 231 241 244 255 244 257 259